Cloud_Cover
6 26 40 54 58 29 70 98 100 100 33 17 100 57 5 96 100 100 100 9 5 1 1 5 21 5 5 1 5 5 86 40 6 90 97 85 10 86 100 100 100 100 100 81
5 5 5 38 8 5 5 38 100 100 100 100 79 98 100 100 96 96 100 100 9 5 5 5 7 5 4 7 7 4 49 95 100 100 100 100 100 99 100 100 99 100 100 100
5 5 7 5 18 9 87 99 64 64 64 100 100 100 100 100 100 100 100 100 100 71 27 20 5 5 32 98 86 83 5 3 5 44 100 100 100 100 100 100 100 100 100 100
5 5 4 5 2 7 61 10 38 100 100 100 100 93 100 100 100 100 100 100 100 100 100 98 76 23 32 6 56 84 88 80 56 47 11 22 100 100 100 100 100 100 100 74
5 5 14 56 64 5 32 45 30 64 8 93 100 100 100 100 100 100 100 100 100 100 100 100 100 100 100 100 90 100 90 57 28 0 1 7 11 58 92 100 95 100 100 100
53 85 100 56 62 81 55 56 21 63 37 54 85 35 100 99 100 56 69 100 100 100 100 100 100 100 100 100 100 100 100 100 45 1 5 4 5 5 24 7 5 10 46 97
27 71 77 51 99 95 95 100 81 28 47 47 70 14 58 34 62 5 32 94 18 6 87 100 100 100 100 100 100 100 100 100 100 100 100 60 20 41 2 66 61 14 8 5
99 93 84 21 98 100 100 100 100 100 100 100 100 72 98 47 50 71 7 18 8 5 4 8 50 100 99 33 98 100 100 100 100 65 17 56 33 88 86 13 5 5 7 5
100 100 98 100 100 100 100 100 100 100 100 100 94 100 100 100 100 64 36 7 48 15 5 5 5 5 5 4 7 5 4 56 100 100 90 70 12 5 5 17 90 93 55 60
90 99 99 100 100 100 100 100 100 100 100 62 5 44 5 40 71 99 97 100 80 5 6 59 27 5 5 5 7 18 3 4 44 91 35 13 56 5 5 5 5 6 58 95
100 100 100 100 100 100 100 100 100 100 92 100 100 100 100 95 98 100 94 16 71 6 83 100 100 100 58 34 5 60 5 16 44 5 17 80 45 5 14 9 5 64 34 24
100 100 100 68 100 100 100 95 100 100 100 100 99 100 100 100 100 100 100 98 89 75 79 24 64 68 100 77 24 93 95 99 96 98 37 5 24 5 29 6 5 26 47 71
100 100 100 99 100 100 95 38 15 77 42 70 100 33 58 70 5 23 29 65 90 100 100 100 100 100 100 100 100 84 100 100 100 100 100 100 36 96 41 71 50 46 76 100
100 75 98 100 56 100 97 71 35 62 95 11 32 12 0 0 80 100 99 6 5 5 0 8 5 14 10 0 0 2 1 1 1 22 99 10 93 100 98 99 100 100 100 100
100 100 100 100 100 54 6 5 5 5 5 90 1 2 0 0 0 2 4 3 3 5 5 3 0 0 0 0 0 0 5 5 5 4 0 0 4 12 26 6 5 8 21 62
100 100 100 81 5 5 5 0 0 0 0 0 0 4 0 12 77 5 0 0 0 0 0 0 0 1 5 16 44 64 49 47 9 5 3 0 3 0 0 0 0 0 0 0
100 61 69 52 5 4 46 0 0 0 0 0 4 2 5 1 1 3 0 0 0 0 0 4 23 81 95 100 98 70 80 86 76 46 5 5 5 5 4 0 0 0 0 0
100 100 44 45 5 86 0 0 0 0 0 0 3 5 1 0 0 0 0 0 0 0 5 26 98 42 16 87 71 48 33 2 2 1 5 3 0 0 0 0 0 0 0 2
9 45 98 77 16 0 0 3 4 25 1 3 4 1 0 0 0 0 1 5 2 0 4 3 3 3 2 0 0 0 0 0 0 0 0 0 0 0 0 0 1 5 5 5
0 5 92 72 100 18 4 5 5 5 0 5 1 0 0 0 4 0 0 5 28 32 5 0 0 0 0 0 0 0 0 4 0 0 0 0 0 0 2 5 5 5 5 5
5 67 84 95 100 62 4 0 0 6 0 4 0 0 0 0 2 0 0 0 0 0 0 0 0 0 0 0 0 0 0 0 0 0 2 5 5 5 5 5 5 5 53 88
58 97 94 40 9 68 0 0 0 0 4 4 5 4 4 0 0 1 0 0 0 0 0 0 0 0 0 1 0 0 0 0 0 4 5 5 5 5 5 30 56 98 100 100
99 22 1 0 0 0 0 0 0 0 0 0 1 0 4 0 1 1 1 0 5 5 5 5 3 5 5 4 5 3 0 0 5 5 5 5 5 55 80 100 100 100 100 100
0 0 0 1 0 0 0 0 3 5 0 0 0 4 5 5 5 5 5 5 5 22 5 5 5 5 5 5 3 5 2 5 5 10 59 71 60 10 5 71 100 100 100 100
0 0 0 2 2 2 0 0 0 0 1 5 5 9 17 36 5 5 43 96 5 5 37 11 10 15 27 3 5 5 5 5 7 97 88 78 67 38 96 100 100 100 100 100
0 0 0 4 2 27 5 5 4 4 5 5 5 5 5 5 13 34 17 44 78 100 98 100 100 74 5 5 5 5 5 5 60 100 100 100 100 100 100 100 100 100 100 100